Weather History for Victoria, BC

Change the Weather History Date:

Sunday, March 24, 2013

  Actual Average Record
Temperature  
Mean Temperature 40 °F -  
Max Temperature 49 °F 54 °F 57 °F (2001)
Min Temperature 31 °F 38 °F 31 °F (2013)
Degree Days  
Heating Degree Days 25    
Moisture  
Dew Point 30 °F    
Average Humidity 69    
Maximum Humidity 87    
Minimum Humidity 29    
Precipitation  
Precipitation 0.00 in 0.06 in - ()
Sea Level Pressure  
Sea Level Pressure 30.25 in    
Wind  
Wind Speed 4 mph ()    
Max Wind Speed 7 mph    
Max Gust Speed -    
Averages and records for this station are not official NWS values.
T = Trace of Precipitation, MM = Missing Value Source: Averaged Metar Reports

Daily Weather History Graph

Daily Weather History Graph

Search for Another Location

Airport:

Trip Planner

Search our weather history database for the weather conditions in past years. The results will help you decide how hot, cold, wet, or windy it might be!

Date:

Astronomy

Mar. 24, 2013 Rise Set
Actual Time 7:07 AM PDT 7:33 PM PDT
Civil Twilight 6:35 AM PDT 8:04 PM PDT
Nautical Twilight 5:58 AM PDT 8:42 PM PDT
Astronomical Twilight 5:19 AM PDT 9:20 PM PDT
Moon 4:57 PM PDT (3/24) 5:32 AM PDT (3/24)
Length of Visible Light 13h 28m
Length of Day
12h 25m
Waxing Gibbous, 92% of the Moon is Illuminated
Mar 24
Waxing Gibbous
Mar 27
Full
Apr 2
Last Quarter
Apr 10
New
Apr 18
First Quarter

Hourly Weather History & Observations

Time (PDT) Temp. Windchill Dew Point Humidity Pressure Visibility Wind Dir Wind Speed Gust Speed Precip Events Conditions
12:00 AM 33.8 °F 30.8 °F 28.4 °F 81% 30.32 in 30.0 mi SW 3.5 mph - N/A   Mostly Cloudy
1:00 AM 33.8 °F 29.6 °F 28.4 °F 81% 30.32 in 30.0 mi WSW 4.6 mph - N/A   Mostly Cloudy
2:00 AM 33.8 °F 30.8 °F 28.4 °F 81% 30.32 in 30.0 mi West 3.5 mph - N/A   Mostly Cloudy
3:00 AM 33.8 °F 28.6 °F 30.2 °F 87% 30.32 in 30.0 mi SW 5.8 mph - N/A   Mostly Cloudy
4:00 AM 35.6 °F 31.7 °F 30.2 °F 81% 30.31 in 30.0 mi SW 4.6 mph - N/A   Mostly Cloudy
5:00 AM 32 °F - 28 °F 81% 30.31 in 28 mi WSW 4.6 mph - -   Overcast
5:00 AM 32.0 °F 26.4 °F 28.4 °F 87% 30.30 in 30.0 mi WSW 5.8 mph - N/A   Overcast
6:00 AM 33.8 °F 29.6 °F 30.2 °F 87% 30.30 in 30.0 mi WSW 4.6 mph - N/A   Overcast
7:00 AM 35.6 °F 30.7 °F 32.0 °F 87% 30.30 in 30.0 mi WSW 5.8 mph - N/A   Overcast
8:00 AM 37.4 °F 32.8 °F 32.0 °F 81% 30.30 in 30.0 mi WSW 5.8 mph - N/A   Mostly Cloudy
9:00 AM 37.4 °F - 32.0 °F 81% 30.30 in 30.0 mi West 2.3 mph - N/A   Mostly Cloudy
10:00 AM 39.2 °F - 33.8 °F 81% 30.30 in 30.0 mi West 2.3 mph - N/A   Overcast
11:00 AM 42 °F - 34 °F 65% 30.30 in 28 mi WNW 3.5 mph - -   Overcast
11:00 AM 41.0 °F 39.0 °F 33.8 °F 76% 30.30 in 30.0 mi WNW 3.5 mph - N/A   Overcast
12:00 PM 44.6 °F 41.4 °F 33.8 °F 66% 30.29 in 30.0 mi East 5.8 mph - N/A   Overcast
1:00 PM 42.8 °F 41.1 °F 33.8 °F 70% 30.27 in 30.0 mi NE 3.5 mph - N/A   Overcast
2:00 PM 46.4 °F 42.9 °F 30.2 °F 53% 30.26 in 30.0 mi North 6.9 mph - N/A   Mostly Cloudy
3:00 PM 48.2 °F - 28.4 °F 46% 30.24 in 30.0 mi NE 4.6 mph - N/A   Mostly Cloudy
4:00 PM 48.2 °F - 28.4 °F 46% 30.21 in 30.0 mi ENE 4.6 mph - N/A   Mostly Cloudy
5:00 PM 49 °F - 27 °F 29% 30.20 in 28 mi NNE 6.9 mph - -   Scattered Clouds
5:00 PM 48.2 °F - 26.6 °F 43% 30.20 in 30.0 mi NNE 6.9 mph - N/A   Mostly Cloudy
6:00 PM 48.2 °F - 28.4 °F 46% 30.18 in 30.0 mi NNE 6.9 mph - N/A   Mostly Cloudy
7:00 PM 46.4 °F 44.3 °F 26.6 °F 46% 30.17 in 30.0 mi North 4.6 mph - N/A   Mostly Cloudy
8:00 PM 39.2 °F 37.0 °F 30.2 °F 70% 30.16 in 30.0 mi WSW 3.5 mph - N/A   Scattered Clouds
9:00 PM 39.2 °F 37.0 °F 30.2 °F 70% 30.16 in 30.0 mi West 3.5 mph - N/A   Mostly Cloudy
10:00 PM 39.2 °F 34.2 °F 33.8 °F 81% 30.16 in 30.0 mi WSW 6.9 mph - N/A   Mostly Cloudy
11:00 PM 40 °F - 32 °F 63% 30.16 in 28 mi West 5.8 mph - -   Mostly Cloudy
11:00 PM 39.2 °F 35.9 °F 32.0 °F 75% 30.16 in 30.0 mi West 4.6 mph - N/A   Mostly Cloudy